Content
SEND FEEDBACK

Daily
Averages
Monthly
Summary
United States of America

MERIZO, GUAM


Home > North America > United States > Guam
Elevation: 3 meters     Latitude: 13 14N     Longitude: 144 39E

WEATHER
 
SELECT A DAY
Number of Records: 342,579;   Date Range: 1/1/95 - 9/18/14
 
SHARE

PRINT THIS DATA

[ ← Previous Day ]
WEATHER ALMANAC - 24 APRIL, 2013
[ Next Day → ]
[ °F ]   °C
Weather ElementAverageHighLow
Temperature26.3 °C30 °C (12:55 pm)24 °C (7:08 am)
Dewpoint22.9 °C24 °C (7:51 pm)21.9 °C (5:55 pm)
Humidity82 %94 % (7:08 am)67 % (12:55 pm)
Barometer1012.2 hPa1013.9 hPa (8:55 am)1010.2 hPa (4:55 pm)
Wind Speed25.4 km/h37 km/h (7:15 am)
Wind Gust50.1 km/h (7:15 am)
Weather ElementAverage
Visibility14.5 km
Wind DirectionENE (68.7 °)

Weather ElementTotal
Precipitation1.02 mm
Cooling Degree Days8.7 (Base 18.3)
Growing Degree Days17 (Base 10)
Averaged from 76 records on 24 April, 2013
WEATHER CONDITIONS BREAKOUT
WIND DIRECTION BREAKOUT
WEATHER BY HOUR - 24 APRIL, 2013
[ °F ]   °C
Local TimeTemperatureDewpointHumidityBarometerVisibilityWind DirectionWind SpeedGust SpeedPrecipitationEventsConditions
1:55 AM25.6 °C22.1 °C81 %1012.9 hPa16.1 kmENE (60°)22.2 km/hPartly Cloudy
2:37 AM26 °C22 °C78 %1012.5 hPa16.1 kmENE (60°)18.5 km/hMostly Cloudy
2:55 AM25.8 °C22.1 °C80 %1012.5 hPa16.1 kmENE (60°)22.2 km/hMostly Cloudy
3:08 AM26 °C22 °C78 %1012.2 hPa16.1 kmENE (60°)22.2 km/hScattered Clouds
3:53 AM26 °C23 °C83 %1011.9 hPa16.1 kmNE (50°)20.4 km/hMostly Cloudy
3:55 AM25.8 °C22.8 °C83 %1011.9 hPa16.1 kmNE (50°)20.4 km/hMostly Cloudy
3:59 AM26 °C23 °C83 %1011.9 hPa16.1 kmNE (50°)20.4 km/hScattered Clouds
4:01 AM26 °C23 °C83 %1011.9 hPa16.1 kmNE (50°)20.4 km/hMostly Cloudy
4:08 AM26 °C23 °C83 %1011.9 hPa16.1 kmNE (50°)20.4 km/hRainLight Rain
4:17 AM26 °C23 °C83 %1011.9 hPa16.1 kmNE (50°)25.9 km/hMostly Cloudy
4:19 AM26 °C23 °C83 %1011.9 hPa16.1 kmNE (50°)22.2 km/hMostly Cloudy
4:55 AM25.8 °C22.3 °C81 %1011.9 hPa16.1 kmENE (60°)24.1 km/h0 mmScattered Clouds
5:55 AM25.9 °C22.5 °C81 %1012.5 hPa16.1 kmNE (50°)22.2 km/hScattered Clouds
5:57 AM26 °C23 °C83 %1012.5 hPa16.1 kmNE (50°)22.2 km/hMostly Cloudy
6:03 AM26 °C23 °C83 %1012.5 hPa16.1 kmNE (50°)20.4 km/hScattered Clouds
6:09 AM26 °C22 °C78 %1012.5 hPa16.1 kmENE (60°)22.2 km/hScattered Clouds
6:48 AM26 °C23 °C83 %1012.9 hPa16.1 kmENE (60°)24.1 km/hMostly Cloudy
6:55 AM26.2 °C23.2 °C83 %1012.9 hPa16.1 kmENE (70°)29.6 km/hMostly Cloudy
6:56 AM26 °C23 °C83 %1012.9 hPa14.5 kmENE (60°)27.8 km/hRainLight Rain
7:04 AM25 °C23 °C89 %1013.2 hPa8 kmENE (70°)33.3 km/h48.1 km/hRainLight Rain
7:05 AM25 °C23 °C89 %1013.2 hPa6.4 kmENE (70°)35.2 km/h48.1 km/hRainLight Rain
7:08 AM24 °C23 °C94 %1013.2 hPa6.4 kmENE (60°)25.9 km/hDrizzle
7:15 AM25 °C23 °C89 %1013.5 hPa4.8 kmEast (90°)37 km/h50.1 km/hRainRain
7:17 AM24 °C23 °C94 %1013.5 hPa4 kmEast (90°)33.3 km/h50.1 km/hRainRain
7:18 AM24 °C23 °C94 %1013.5 hPa3.2 kmEast (90°)31.5 km/h50.1 km/hRainRain
7:21 AM24 °C23 °C94 %1013.5 hPa3.2 kmEast (100°)35.2 km/h50.1 km/hRainLight Rain
7:22 AM24 °C23 °C94 %1013.5 hPa3.2 kmEast (90°)37 km/h50.1 km/hRainLight Rain
7:24 AM24 °C23 °C94 %1013.5 hPa4 kmEast (90°)33.3 km/h44.4 km/hRainLight Rain
7:25 AM24 °C23 °C94 %1013.5 hPa4.8 kmEast (90°)35.2 km/h44.4 km/hRainLight Rain
7:26 AM24 °C23 °C94 %1013.5 hPa6.4 kmEast (90°)33.3 km/h42.6 km/hOvercast
7:30 AM24 °C23 °C94 %1013.5 hPa16.1 kmEast (90°)27.8 km/hOvercast
7:31 AM24 °C23 °C94 %1013.5 hPa16.1 kmEast (90°)27.8 km/hOvercast
7:34 AM25 °C23 °C89 %1013.5 hPa16.1 kmEast (90°)25.9 km/hMostly Cloudy
7:55 AM25.7 °C22 °C80 %1013.5 hPa16.1 kmEast (80°)24.1 km/h1.02 mmMostly Cloudy
8:55 AM27.5 °C23.3 °C78 %1013.9 hPa16.1 kmENE (70°)24.1 km/hClear
9:55 AM28.2 °C22.7 °C72 %1013.9 hPa16.1 kmEast (80°)29.6 km/hScattered Clouds
10:21 AM28 °C23 °C74 %1013.9 hPa16.1 kmENE (70°)29.6 km/hMostly Cloudy
10:50 AM29 °C23 °C70 %1013.5 hPa16.1 kmEast (80°)29.6 km/h37 km/hScattered Clouds
10:55 AM29.4 °C23.6 °C71 %1013.5 hPa16.1 kmENE (70°)31.5 km/h37 km/hScattered Clouds
11:55 AM29.8 °C23.4 °C68 %1012.9 hPa16.1 kmENE (70°)33.3 km/hMostly Cloudy
12:55 PM30 °C23.3 °C67 %1011.9 hPa16.1 kmEast (80°)29.6 km/h38.9 km/hMostly Cloudy
1:55 PM29.7 °C23.2 °C68 %1011.2 hPa16.1 kmEast (80°)27.8 km/hScattered Clouds
2:42 PM29 °C23 °C70 %1010.8 hPa16.1 kmEast (80°)24.1 km/hMostly Cloudy
2:55 PM29.2 °C23.3 °C70 %1010.8 hPa16.1 kmEast (80°)25.9 km/hMostly Cloudy
3:55 PM28.8 °C22.1 °C67 %1010.5 hPa16.1 kmENE (70°)24.1 km/hPartly Cloudy
4:55 PM28.1 °C22.1 °C70 %1010.2 hPa16.1 kmEast (80°)22.2 km/hScattered Clouds
5:16 PM28 °C23 °C74 %1010.2 hPa16.1 kmEast (80°)24.1 km/hMostly Cloudy
5:21 PM28 °C23 °C74 %1010.2 hPa16.1 kmEast (80°)24.1 km/hScattered Clouds
5:55 PM26.9 °C21.9 °C74 %1010.5 hPa16.1 kmENE (70°)24.1 km/hScattered Clouds
6:13 PM27 °C23 °C79 %1010.5 hPa16.1 kmENE (60°)22.2 km/hMostly Cloudy
6:23 PM27 °C23 °C79 %1010.5 hPa16.1 kmENE (70°)24.1 km/hScattered Clouds
6:33 PM27 °C23 °C79 %1010.8 hPa16.1 kmENE (70°)22.2 km/hMostly Cloudy
6:36 PM27 °C23 °C79 %1010.8 hPa16.1 kmENE (70°)20.4 km/hScattered Clouds
6:52 PM27 °C23 °C79 %1010.8 hPa16.1 kmENE (60°)18.5 km/hMostly Cloudy
6:55 PM26.5 °C22.4 °C78 %1010.8 hPa16.1 kmENE (60°)20.4 km/hMostly Cloudy
7:28 PM27 °C23 °C79 %1011.2 hPa16.1 kmENE (60°)25.9 km/hMostly Cloudy
7:29 PM27 °C23 °C79 %1011.2 hPa16.1 kmENE (60°)25.9 km/hMostly Cloudy
7:41 PM27 °C23 °C79 %1011.2 hPa16.1 kmENE (60°)22.2 km/hMostly Cloudy
7:51 PM27 °C24 °C84 %1011.2 hPa16.1 kmENE (60°)31.5 km/h37 km/hMostly Cloudy
7:55 PM26.4 °C23.6 °C84 %1011.2 hPa16.1 kmENE (60°)29.6 km/hMostly Cloudy
7:59 PM26 °C24 °C89 %1011.5 hPa16.1 kmENE (60°)24.1 km/hMostly Cloudy
8:55 PM26.3 °C23.2 °C83 %1011.5 hPa16.1 kmENE (70°)24.1 km/hScattered Clouds
9:17 PM26 °C22 °C78 %1011.9 hPa16.1 kmENE (70°)24.1 km/hMostly Cloudy
9:23 PM26 °C22 °C78 %1011.9 hPa16.1 kmENE (70°)24.1 km/hScattered Clouds
9:36 PM26 °C23 °C83 %1012.2 hPa16.1 kmENE (60°)24.1 km/hMostly Cloudy
9:38 PM26 °C23 °C83 %1012.2 hPa16.1 kmENE (60°)25.9 km/hScattered Clouds
9:39 PM26 °C23 °C83 %1012.2 hPa16.1 kmENE (60°)25.9 km/hMostly Cloudy
9:52 PM26 °C23 °C83 %1012.2 hPa16.1 kmENE (60°)25.9 km/hMostly Cloudy
9:55 PM26.3 °C23.4 °C84 %1012.5 hPa16.1 kmENE (60°)25.9 km/hMostly Cloudy
10:55 PM25.8 °C23.2 °C85 %1012.2 hPa16.1 kmENE (70°)18.5 km/hMostly Cloudy
11:38 PM26 °C23 °C83 %1011.9 hPa14.5 kmENE (70°)22.2 km/hRainLight Rain
11:47 PM26 °C23 °C83 %1011.5 hPa14.5 kmENE (70°)20.4 km/hRainLight Rain
11:48 PM26 °C23 °C83 %1011.5 hPa16.1 kmENE (70°)22.2 km/hMostly Cloudy
11:52 PM25 °C24 °C94 %1011.5 hPa16.1 kmENE (70°)18.5 km/hMostly Cloudy
11:55 PM25.4 °C23.8 °C91 %1011.5 hPa16.1 kmENE (70°)16.7 km/h0 mmMostly Cloudy
11:56 PM25 °C24 °C94 %1011.5 hPa16.1 kmENE (70°)16.7 km/hMostly Cloudy
Hourly data recorded from PGUA, located 0 kilometers away from Merizo, Guam







STORIES FROM OUR PARTNERS